Terminal Aerodrome Forecast
Issued by NWS Atlanta, GA

Home | Current Version | Previous Version | Text Only | Print | Product List | Glossary On
Versions: 1 2 3 4 5 6 7 8 9 10 11 12 13 14 15 16 17 18 19 20 21 22 23 24 25 26 27 28 29 30 31 32 33 34 35 36
950
FTAK31 PAJN 301123
TAFAHN
TAF
PAHN 301123Z 3012/0112 29005KT P6SM SKC WS020/02025KT
      TEMPO 3012/3016 29012G25KT
     FM301600 29018G28KT P6SM SKC
     FM010000 30012KT P6SM SKC
      AMD LTD TO CLD VIS AND WIND=

USA.gov is the U.S. government's official web portal to all federal, state and local government web resources and services.